Location: El Mouella
(16.4949°N, 9.1594°W)
Time: 23:52:30
(UTC+00:00)

CZ-2C R/B - Pass Details

Date: 02 June 2020
Orbit: 785 x 870 km, 98.3° (Epoch: 13 July)

Event Time Altitude Azimuth Distance (km) Brightness Sun altitude
Rises 19:26:52 0° 36° (NE) 3,448 5.8 -5.3°
Reaches altitude 10° 19:29:58 10° 53° (NE) 2,505 4.9 -5.9°
Maximum altitude 19:33:51 19° 98° (E) 1,912 4.0 -6.8°
Drops below altitude 10° 19:37:42 10° 143° (SE) 2,477 4.6 -7.6°
Sets 19:40:43 0° 160° (SSE) 3,398 5.4 -8.3°
